Tracking 32571 objects as of 17-Dec-2025
HD Live streaming from Space Station
objects crossing your sky now

STARLINK-31066

Track STARLINK-31066 now!
10-day predictions
STARLINK-31066 is classified as:


NORAD ID: 58676
Int'l Code: 2023-211K
Perigee: 565.3 km
Apogee: 567.0 km
Inclination: 43.0 °
Period: 95.8 minutes
Semi major axis: 6937 km
RCS: Unknown
Launch date: December 29, 2023
Source: United States (US)
Launch site: AIR FORCE EASTERN TEST RANGE (AFETR)
Your satellite tracking list
Your tracking list is empty




NASA's NSSDC Master Catalog

Two Line Element Set (TLE):
1 58676U 23211K   25350.62852793  .00004563  00000-0  35254-3 0  9998
2 58676  43.0025 326.0161 0001238 274.9775  85.0926 15.02549497109491
Source of the keplerian elements: AFSPC